DL8JF-13 Weather Reports


time (UTC)temp
C
wind
direction
speed
KPH
gust
KPH
rain 1hr
cm
rain 24hr
cm
rain mn
cm
humidity
%
barometer
mb
20260507113352 14 0 0.0 0.0 0.00 0.00 0.00 51 1010.0
20260507111849 14 0 0.0 0.0 0.00 0.00 0.00 52 1010.0
20260507110352 14 0 0.0 0.0 0.00 0.00 0.00 53 1010.1
20260507104852 14 0 0.0 0.0 0.00 0.00 0.00 54 1009.9
20260507103349 13 0 0.0 0.0 0.00 0.00 0.00 53 1009.7
20260507101850 13 0 0.0 0.0 0.00 0.00 0.00 54 1009.7
20260507100352 13 0 0.0 0.0 0.00 0.00 0.00 57 1009.5
20260507094849 13 0 0.0 0.0 0.00 0.00 0.00 57 1009.5
20260507093349 13 0 0.0 0.0 0.00 0.00 0.00 58 1009.4
20260507091849 12 0 0.0 0.0 0.00 0.00 0.00 60 1009.4
20260507090349 12 0 0.0 0.0 0.00 0.00 0.00 62 1009.3
20260507084852 11 0 0.0 0.0 0.00 0.00 0.00 63 1008.9
20260507083349 11 0 0.0 0.0 0.00 0.00 0.00 63 1009.0
20260507081849 10 0 0.0 0.0 0.00 0.00 0.00 65 1009.0
20260507080349 10 0 0.0 0.0 0.00 0.00 0.00 67 1008.9
20260507074852 10 0 0.0 0.0 0.00 0.00 0.00 70 1008.7
20260507073349 9 0 0.0 0.0 0.00 0.00 0.00 71 1008.6
20260507071852 8 0 0.0 0.0 0.00 0.00 0.00 72 1008.6
20260507070349 8 0 0.0 0.0 0.00 0.00 0.00 74 1008.0
20260507064852 8 0 0.0 0.0 0.00 0.00 0.00 74 1008.4
20260507063352 8 0 0.0 0.0 0.00 0.00 0.00 75 1008.3
20260507061852 8 0 0.0 0.0 0.00 0.00 0.00 76 1008.3
20260507060352 8 0 0.0 0.0 0.00 0.00 0.00 77 1008.1
20260507054852 7 0 0.0 0.0 0.00 0.00 0.00 77 1007.8
20260507053349 7 0 0.0 0.0 0.00 0.00 0.00 78 1007.7
20260507051849 7 0 0.0 0.0 0.00 0.00 0.00 77 1007.7
20260507050349 7 0 0.0 0.0 0.00 0.00 0.00 77 1007.3
20260507044849 7 0 0.0 0.0 0.00 0.00 0.00 78 1007.2
20260507043352 7 0 0.0 0.0 0.00 0.00 0.00 77 1006.9
20260507041852 7 0 0.0 0.0 0.00 0.00 0.00 77 1006.9
20260507040349 7 0 0.0 0.0 0.00 0.00 0.00 78 1006.7
20260507034849 7 0 0.0 0.0 0.00 0.00 0.00 78 1006.7
20260507033349 7 0 0.0 0.0 0.00 0.00 0.00 78 1006.7
20260507031850 7 0 0.0 0.0 0.00 0.00 0.00 78 1006.7
20260507030349 7 0 0.0 0.0 0.00 0.00 0.00 78 1006.2
20260507024849 7 0 0.0 0.0 0.00 0.00 0.00 77 1006.0
20260507023349 7 0 0.0 0.0 0.00 0.00 0.00 77 1005.9
20260507021852 7 0 0.0 0.0 0.00 0.00 0.00 77 1005.9
20260507020352 7 0 0.0 0.0 0.00 0.00 0.00 76 1005.8
20260507014852 8 0 0.0 0.0 0.00 0.00 0.00 75 1005.8
20260507013349 8 0 0.0 0.0 0.00 0.00 0.00 75 1005.7
20260507011852 8 0 0.0 0.0 0.00 0.00 0.00 75 1005.7
20260507010352 8 0 0.0 0.0 0.00 0.00 0.00 75 1005.6
20260507004849 8 0 0.0 0.0 0.00 0.00 0.00 75 1005.6
20260507003352 8 0 0.0 0.0 0.00 0.00 0.00 75 1005.6
20260507001849 8 0 0.0 0.0 0.00 0.00 0.00 75 1005.6
20260507000352 8 0 0.0 0.0 0.00 0.00 0.00 75 1005.4
20260506234852 8 0 0.0 0.0 0.00 0.00 0.00 75 1005.4
20260506233349 8 0 0.0 0.0 0.00 0.00 0.00 75 1005.5
20260506231852 8 0 0.0 0.0 0.00 0.00 0.00 75 1005.5
20260506230349 8 0 0.0 0.0 0.00 0.00 0.00 76 1005.4
20260506224852 8 0 0.0 0.0 0.00 0.00 0.00 76 1005.2
20260506223352 8 0 0.0 0.0 0.00 0.00 0.00 76 1005.0
20260506221852 8 0 0.0 0.0 0.00 0.00 0.00 76 1005.0
20260506220354 8 0 0.0 0.0 0.00 0.00 0.00 76 1005.0
20260506214850 9 0 0.0 0.0 0.00 0.00 0.00 76 1004.8
20260506213352 9 0 0.0 0.0 0.00 0.00 0.00 77 1004.8
20260506211852 9 0 0.0 0.0 0.00 0.00 0.00 77 1004.8
20260506210352 9 0 0.0 0.0 0.00 0.00 0.00 78 1004.5
20260506204849 9 0 0.0 0.0 0.00 0.00 0.00 78 1004.4
20260506203352 9 0 0.0 0.0 0.00 0.00 0.00 78 1004.3
20260506201849 9 0 0.0 0.0 0.00 0.00 0.00 78 1004.3
20260506200349 9 0 0.0 0.0 0.00 0.00 0.00 78 1004.2
20260506194849 9 0 0.0 0.0 0.00 0.00 0.00 78 1004.1
20260506193352 9 0 0.0 0.0 0.00 0.00 0.00 77 1003.8
20260506191852 10 0 0.0 0.0 0.00 0.00 0.00 78 1003.8
20260506190352 10 0 0.0 0.0 0.00 0.00 0.00 78 1003.7
20260506184849 10 0 0.0 0.0 0.00 0.00 0.00 78 1003.6
20260506183352 10 0 0.0 0.0 0.00 0.00 0.00 78 1003.2
20260506181852 10 0 0.0 0.0 0.00 0.00 0.00 78 1003.2
20260506180352 10 0 0.0 0.0 0.00 0.00 0.00 78 1003.1
20260506174849 10 0 0.0 0.0 0.00 0.00 0.00 77 1003.3
20260506173349 10 0 0.0 0.0 0.00 0.00 0.00 77 1003.1
20260506171852 10 0 0.0 0.0 0.00 0.00 0.00 77 1003.1
20260506170352 10 0 0.0 0.0 0.00 0.00 0.00 75 1002.8
20260506164852 10 0 0.0 0.0 0.00 0.00 0.00 74 1002.9
20260506163349 10 0 0.0 0.0 0.00 0.00 0.00 74 1002.9
20260506161849 10 0 0.0 0.0 0.00 0.00 0.00 73 1002.9
20260506160349 11 0 0.0 0.0 0.00 0.00 0.00 71 1003.0
20260506154849 11 0 0.0 0.0 0.00 0.00 0.00 68 1002.9
20260506153349 11 0 0.0 0.0 0.00 0.00 0.00 64 1003.0
20260506151852 11 0 0.0 0.0 0.00 0.00 0.00 61 1003.0
20260506150349 11 0 0.0 0.0 0.00 0.00 0.00 60 1003.0
20260506144852 11 0 0.0 0.0 0.00 0.00 0.00 62 1002.9
20260506143352 11 0 0.0 0.0 0.00 0.00 0.00 63 1003.1
20260506141852 12 0 0.0 0.0 0.00 0.00 0.00 63 1003.1
20260506140349 12 0 0.0 0.0 0.00 0.00 0.00 62 1003.1
20260506134849 12 0 0.0 0.0 0.00 0.00 0.00 60 1003.0
20260506133352 12 0 0.0 0.0 0.00 0.00 0.00 57 1002.9
20260506131849 12 0 0.0 0.0 0.00 0.00 0.00 57 1002.9
20260506130352 12 0 0.0 0.0 0.00 0.00 0.00 59 1002.6
20260506124849 12 0 0.0 0.0 0.00 0.00 0.00 58 1002.7
20260506123352 12 0 0.0 0.0 0.00 0.00 0.00 58 1002.4
20260506121849 12 0 0.0 0.0 0.00 0.00 0.00 59 1002.4
20260506120349 12 0 0.0 0.0 0.00 0.00 0.00 59 1002.5
20260506114852 12 0 0.0 0.0 0.00 0.00 0.00 60 1002.5